Regional Weather Roundup
Issued by NWS Jackson, KY

Home | Current Version | Previous Version | Text Only | Print | Product List | Glossary Off
Versions: 1 2 3 4 5 6 7 8 9 10 11 12 13 14 15 16 17 18 19 20 21 22 23 24 25 26 27 28 29 30 31 32 33 34 35 36 37 38 39 40 41 42 43 44 45 46 47 48 49 50

000
ASUS43 KJKL 271910
RWRJKL

EAST KENTUCKY HOURLY WEATHER ROUNDUP
NATIONAL WEATHER SERVICE JACKSON KY
200 PM EST FRI FEB 27 2015

NOTE: "FAIR" INDICATES FEW OR NO CLOUDS BELOW 12,000 FEET WITH
NO SIGNIFICANT WEATHER AND/OR OBSTRUCTIONS TO VISIBILITY.

* THESE REPORTS ARE NOT UNDER NWS QUALITY CONTROL AND MAY NOT
  REPORT WEATHER SUCH AS PRECIPITATION AND FOG.

KYZ079-080-083-085-087-088-110-112-115-119-120-272000
...EASTERN KENTUCKY...

CITY           SKY/WX    TMP DP  RH WIND       PRES   REMARKS
JACKSON        SUNNY     24   4  42 MISG      30.49F
LONDON         SUNNY     26   5  40 CALM      30.50F
SOMERSET*      SUNNY     21   5  49 NE6       30.56S WCI  14
MONTICELLO*    SUNNY     25  10  52 VRB5      30.56F WCI  19
MIDDLESBORO*   SUNNY     28  12  51 NE8       30.48F WCI  19
HAZARD APT*    PTCLDY    25   7  46 CALM      30.49F
BLACK MTN*       N/A     28  16  59 N8          N/A  WCI  20
PIKEVILLE APT* CLOUDY    21   9  58 CALM      30.48F
BIG SANDY*     CLOUDY    23   8  52 NE3       30.51F
MOREHEAD APT*  PTCLDY    19   5  53 VRB5G13   30.58F WCI  13
$$

KYZ035-036-041-042-044-050-067-078-099-272000
...CENTRAL KENTUCKY...

CITY           SKY/WX    TMP DP  RH WIND       PRES   REMARKS
MT STERLING*   SUNNY     21   7  53 CALM      30.57F
FLEMING/MASON* PTSUNNY   19   7  58 NW7       30.58F WCI  10
DANVILLE*      SUNNY     19   3  49 NE7       30.57S WCI  10
RICHMOND*      PTSUNNY   19   7  58 N8        30.54F WCI   9
LEXINGTON      MOSUNNY   21   6  52 N8        30.56F WCI  11
FRANKFORT      MOSUNNY   22   1  40 VRB5      30.56F WCI  16
$$

KYZ091>093-OHZ055-061-077-WVZ005-015-034-035-042-272000
...SOUTHERN OHIO/WEST VIRGINIA...

CITY           SKY/WX    TMP DP  RH WIND       PRES   REMARKS
COVINGTON      MOSUNNY   20   1  43 NE6       30.57F WCI  12
COLUMBUS       CLOUDY    16   1  51 W9        30.57F WCI   4
DAYTON         MOSUNNY   19   3  49 NW7       30.57F WCI  10
WILMINGTON     PTSUNNY   16  -1  47 N7        30.55F WCI   6
HUNTINGTON     CLOUDY    20   6  55 N5        30.56F WCI  13
CHARLESTON     PTSUNNY   22   7  52 NW10      30.53F WCI  11
PINEVILLE*     PTSUNNY   28  14  57 MISG      30.48F
BECKLEY        CLOUDY    21   8  57 NW12      30.36F WCI   9
BLUEFIELD      CLOUDY    24  10  55 W13       30.34S WCI  12
$$

VAZ002-007-008-TNZ017-027-036-066-071-272000
...SOUTHWEST VIRGINIA/EAST TENNESSEE...

CITY           SKY/WX    TMP DP  RH WIND       PRES   REMARKS
WISE*          MOSUNNY   27  12  54 NW8       30.37S WCI  18
JONESVILLE*    CLEAR     30  10  43 CALM      30.46F
ABINGDON*      CLOUDY    30  16  54 CALM      30.38F
BRISTOL        LGT SNOW  32  23  69 CALM      30.42F VSB 3/4
KNOXVILLE      MOSUNNY   31  15  52 MISG      30.46F
OAK RIDGE        N/A     34  15  46 MISG      30.48S
CROSSVILLE     SUNNY     27  10  49 VRB5      30.42F WCI  22
NASHVILLE      MOSUNNY   31  11  43 N9        30.54F WCI  23
$$

...KEY TO REMARKS...
VSB - VISIBILITY IN MILES
WCI - WIND CHILL INDEX
HX  - HEAT INDEX

$$


USA.gov is the U.S. government's official web portal to all federal, state and local government web resources and services.